| time (UTC) | temp F | wind direction | speed knots | gust knots | rain 1hr in | rain 24hr in | rain mn in | humidity % | barometer mb |
| 20260510061008 | 68 | 187 | 0.0 | 2.6 | 0.00 | 0.00 | 0.00 | 86 | 1014.0 |
| 20260510060508 | 68 | 187 | 0.0 | 2.6 | 0.00 | 0.00 | 0.00 | 86 | 1014.0 |
| 20260510060009 | 68 | 187 | 0.9 | 3.5 | 0.00 | 0.00 | 0.00 | 86 | 1014.0 |
| 20260510055505 | 68 | 187 | 0.9 | 3.5 | 0.00 | 0.00 | 0.00 | 86 | 1013.9 |
| 20260510055003 | 68 | 186 | 1.7 | 3.5 | 0.00 | 0.00 | 0.00 | 85 | 1014.0 |
| 20260510054502 | 69 | 187 | 0.9 | 3.5 | 0.00 | 0.00 | 0.00 | 85 | 1014.1 |
| 20260510054100 | 69 | 188 | 1.7 | 3.5 | 0.00 | 0.00 | 0.00 | 85 | 1014.0 |
| 20260510053559 | 69 | 190 | 1.7 | 4.3 | 0.00 | 0.00 | 0.00 | 85 | 1013.9 |
| 20260510053109 | 69 | 190 | 1.7 | 4.3 | 0.00 | 0.00 | 0.00 | 84 | 1013.9 |
| 20260510052557 | 69 | 183 | 1.7 | 3.5 | 0.00 | 0.00 | 0.00 | 84 | 1013.7 |
| 20260510052056 | 69 | 182 | 1.7 | 3.5 | 0.00 | 0.00 | 0.00 | 84 | 1013.6 |
| 20260510051645 | 69 | 182 | 1.7 | 3.5 | 0.00 | 0.00 | 0.00 | 83 | 1013.5 |
| 20260510051058 | 69 | 182 | 1.7 | 3.5 | 0.00 | 0.00 | 0.00 | 83 | 1013.5 |
| 20260510050555 | 69 | 186 | 1.7 | 4.3 | 0.00 | 0.00 | 0.00 | 82 | 1013.4 |
| 20260510050057 | 70 | 186 | 1.7 | 4.3 | 0.00 | 0.00 | 0.00 | 82 | 1013.5 |
| 20260510045552 | 70 | 202 | 1.7 | 3.5 | 0.00 | 0.00 | 0.00 | 81 | 1013.4 |
| 20260510045052 | 70 | 173 | 1.7 | 3.5 | 0.00 | 0.00 | 0.00 | 81 | 1013.4 |
| 20260510044553 | 70 | 190 | 1.7 | 4.3 | 0.00 | 0.00 | 0.00 | 81 | 1013.3 |
| 20260510044053 | 70 | 182 | 1.7 | 4.3 | 0.00 | 0.00 | 0.00 | 80 | 1013.3 |
| 20260510043551 | 70 | 196 | 1.7 | 4.3 | 0.00 | 0.00 | 0.00 | 80 | 1013.4 |
| 20260510043134 | 70 | 171 | 1.7 | 4.3 | 0.00 | 0.00 | 0.00 | 79 | 1013.5 |
| 20260510042553 | 70 | 177 | 1.7 | 4.3 | 0.00 | 0.00 | 0.00 | 79 | 1013.5 |
| 20260510042052 | 70 | 181 | 1.7 | 5.2 | 0.00 | 0.00 | 0.00 | 78 | 1013.4 |
| 20260510041553 | 70 | 187 | 1.7 | 5.2 | 0.00 | 0.00 | 0.00 | 77 | 1013.4 |
| 20260510041052 | 71 | 192 | 1.7 | 4.3 | 0.00 | 0.00 | 0.00 | 75 | 1013.3 |
| 20260510040550 | 71 | 192 | 1.7 | 4.3 | 0.00 | 0.00 | 0.00 | 75 | 1013.3 |
| 20260510040050 | 71 | 193 | 1.7 | 4.3 | 0.00 | 0.00 | 0.00 | 73 | 1013.5 |
| 20260510035549 | 71 | 178 | 1.7 | 3.5 | 0.00 | 0.00 | 0.00 | 73 | 1013.4 |
| 20260510035053 | 70 | 169 | 1.7 | 4.3 | 0.00 | 0.00 | 0.00 | 71 | 1013.4 |
| 20260510034553 | 71 | 175 | 1.7 | 3.5 | 0.00 | 0.00 | 0.00 | 69 | 1013.4 |
| 20260510034048 | 71 | 149 | 0.9 | 2.6 | 0.00 | 0.00 | 0.00 | 68 | 1013.5 |
| 20260510033547 | 71 | 148 | 0.9 | 2.6 | 0.00 | 0.00 | 0.00 | 67 | 1013.5 |
| 20260510033050 | 71 | 148 | 0.0 | 1.7 | 0.00 | 0.00 | 0.00 | 67 | 1013.4 |
| 20260510032548 | 71 | 148 | 0.0 | 1.7 | 0.00 | 0.00 | 0.00 | 67 | 1013.3 |
| 20260510032049 | 71 | 148 | 0.0 | 1.7 | 0.00 | 0.00 | 0.00 | 66 | 1013.2 |
| 20260510031618 | 71 | 148 | 0.0 | 0.0 | 0.00 | 0.00 | 0.00 | 67 | 1013.0 |
| 20260510031045 | 70 | 148 | 0.0 | 0.0 | 0.00 | 0.00 | 0.00 | 67 | 1013.0 |
| 20260510030544 | 70 | 148 | 0.0 | 0.9 | 0.00 | 0.00 | 0.00 | 67 | 1013.0 |
| 20260510030043 | 70 | 149 | 0.0 | 0.9 | 0.00 | 0.00 | 0.00 | 67 | 1012.9 |
| 20260510025543 | 70 | 149 | 0.0 | 0.9 | 0.00 | 0.00 | 0.00 | 67 | 1012.8 |
| 20260510025043 | 70 | 149 | 0.0 | 0.9 | 0.00 | 0.00 | 0.00 | 68 | 1012.8 |
| 20260510024544 | 69 | 149 | 0.0 | 0.9 | 0.00 | 0.00 | 0.00 | 68 | 1012.8 |
| 20260510024041 | 69 | 149 | 0.0 | 0.0 | 0.00 | 0.00 | 0.00 | 69 | 1012.6 |
| 20260510023541 | 69 | 149 | 0.0 | 0.0 | 0.00 | 0.00 | 0.00 | 71 | 1012.6 |
| 20260510023051 | 69 | 149 | 0.0 | 0.0 | 0.00 | 0.00 | 0.00 | 73 | 1012.5 |
| 20260510022541 | 69 | 149 | 0.0 | 0.0 | 0.00 | 0.00 | 0.00 | 74 | 1012.5 |
| 20260510022041 | 69 | 149 | 0.0 | 0.0 | 0.00 | 0.00 | 0.00 | 74 | 1012.4 |
| 20260510021544 | 69 | 149 | 0.0 | 0.0 | 0.00 | 0.00 | 0.00 | 75 | 1012.3 |
| 20260510021041 | 70 | 149 | 0.0 | 0.0 | 0.00 | 0.00 | 0.00 | 76 | 1012.3 |
| 20260510020546 | 70 | 149 | 0.0 | 0.0 | 0.00 | 0.00 | 0.00 | 74 | 1012.3 |
| 20260510020043 | 70 | 149 | 0.0 | 0.0 | 0.00 | 0.00 | 0.00 | 73 | 1012.2 |
| 20260510015542 | 70 | 148 | 0.0 | 0.0 | 0.00 | 0.00 | 0.00 | 75 | 1012.2 |
| 20260510015040 | 70 | 149 | 0.0 | 0.0 | 0.00 | 0.00 | 0.00 | 74 | 1012.2 |
| 20260510014540 | 70 | 149 | 0.0 | 0.0 | 0.00 | 0.00 | 0.00 | 75 | 1012.2 |
| 20260510014040 | 71 | 149 | 0.0 | 0.0 | 0.00 | 0.00 | 0.00 | 74 | 1012.1 |
| 20260510013542 | 71 | 148 | 0.0 | 0.0 | 0.00 | 0.00 | 0.00 | 75 | 1012.2 |
| 20260510013042 | 71 | 148 | 0.0 | 0.0 | 0.00 | 0.00 | 0.00 | 74 | 1012.1 |
| 20260510012539 | 71 | 149 | 0.0 | 0.0 | 0.00 | 0.00 | 0.00 | 73 | 1012.1 |
| 20260510012039 | 72 | 148 | 0.0 | 0.0 | 0.00 | 0.00 | 0.00 | 72 | 1011.9 |
| 20260510011552 | 72 | 149 | 0.0 | 0.0 | 0.00 | 0.00 | 0.00 | 73 | 1012.0 |
| 20260510011038 | 72 | 149 | 0.0 | 0.0 | 0.00 | 0.00 | 0.00 | 71 | 1011.9 |
| 20260510010543 | 73 | 149 | 0.0 | 0.0 | 0.00 | 0.00 | 0.00 | 70 | 1011.9 |
| 20260510010047 | 73 | 149 | 0.0 | 0.0 | 0.00 | 0.00 | 0.00 | 70 | 1011.9 |
| 20260510005538 | 73 | 149 | 0.0 | 0.0 | 0.00 | 0.00 | 0.00 | 68 | 1011.8 |
| 20260510005037 | 74 | 149 | 0.0 | 0.0 | 0.00 | 0.00 | 0.00 | 69 | 1011.8 |
| 20260510004536 | 74 | 149 | 0.0 | 0.0 | 0.00 | 0.00 | 0.00 | 69 | 1011.6 |
| 20260510004041 | 74 | 149 | 0.0 | 0.0 | 0.00 | 0.00 | 0.00 | 68 | 1011.6 |
| 20260510003536 | 75 | 148 | 0.0 | 0.0 | 0.00 | 0.00 | 0.00 | 66 | 1011.5 |
| 20260510003036 | 76 | 148 | 0.0 | 0.0 | 0.00 | 0.00 | 0.00 | 65 | 1011.4 |
| 20260510002536 | 76 | 148 | 0.0 | 0.0 | 0.00 | 0.00 | 0.00 | 64 | 1011.4 |
| 20260510002036 | 77 | 148 | 0.0 | 0.0 | 0.00 | 0.00 | 0.00 | 63 | 1011.3 |
| 20260510001536 | 78 | 148 | 0.0 | 0.0 | 0.00 | 0.00 | 0.00 | 62 | 1011.3 |
| 20260510001035 | 78 | 149 | 0.0 | 0.0 | 0.00 | 0.00 | 0.00 | 61 | 1011.2 |
| 20260510000535 | 78 | 148 | 0.0 | 0.0 | 0.00 | 0.00 | 0.00 | 61 | 1011.2 |
| 20260510000034 | 78 | 148 | 0.0 | 0.0 | 0.00 | 0.00 | 0.00 | 61 | 1011.2 |
| 20260509235534 | 78 | 149 | 0.0 | 0.0 | 0.00 | 0.00 | 0.00 | 61 | 1011.1 |
| 20260509235035 | 79 | 149 | 0.0 | 0.0 | 0.00 | 0.00 | 0.00 | 60 | 1011.1 |
| 20260509234535 | 79 | 149 | 0.0 | 0.9 | 0.00 | 0.00 | 0.00 | 61 | 1011.1 |
| 20260509234033 | 79 | 148 | 0.0 | 0.9 | 0.00 | 0.00 | 0.00 | 61 | 1011.0 |
| 20260509233535 | 79 | 149 | 0.0 | 0.9 | 0.00 | 0.00 | 0.00 | 61 | 1010.9 |
| 20260509233033 | 79 | 149 | 0.0 | 0.0 | 0.00 | 0.00 | 0.00 | 59 | 1010.9 |
| 20260509232533 | 79 | 149 | 0.0 | 0.0 | 0.00 | 0.00 | 0.00 | 59 | 1010.9 |
| 20260509232032 | 79 | 149 | 0.0 | 0.9 | 0.00 | 0.00 | 0.00 | 60 | 1010.9 |
| 20260509231533 | 79 | 149 | 0.0 | 0.9 | 0.00 | 0.00 | 0.00 | 60 | 1010.9 |
| 20260509231032 | 79 | 148 | 0.0 | 0.0 | 0.00 | 0.00 | 0.00 | 59 | 1010.8 |
| 20260509230532 | 79 | 149 | 0.0 | 0.9 | 0.00 | 0.00 | 0.00 | 60 | 1010.9 |
| 20260509230032 | 79 | 148 | 0.0 | 0.9 | 0.00 | 0.00 | 0.00 | 60 | 1010.9 |
| 20260509225531 | 80 | 148 | 0.0 | 2.6 | 0.00 | 0.00 | 0.00 | 59 | 1010.8 |
| 20260509225032 | 80 | 149 | 0.0 | 0.0 | 0.00 | 0.00 | 0.00 | 59 | 1010.8 |
| 20260509224531 | 80 | 149 | 0.0 | 0.9 | 0.00 | 0.00 | 0.00 | 61 | 1010.8 |
| 20260509224031 | 80 | 149 | 0.0 | 0.9 | 0.00 | 0.00 | 0.00 | 60 | 1010.7 |
| 20260509223531 | 80 | 149 | 0.0 | 2.6 | 0.00 | 0.00 | 0.00 | 60 | 1010.7 |
| 20260509223030 | 79 | 149 | 0.0 | 2.6 | 0.00 | 0.00 | 0.00 | 60 | 1010.8 |
| 20260509222531 | 79 | 149 | 0.0 | 0.9 | 0.00 | 0.00 | 0.00 | 61 | 1010.7 |
| 20260509222035 | 79 | 149 | 0.0 | 0.9 | 0.00 | 0.00 | 0.00 | 64 | 1010.7 |
| 20260509221535 | 79 | 149 | 0.0 | 0.9 | 0.00 | 0.00 | 0.00 | 63 | 1010.7 |
| 20260509221030 | 78 | 149 | 0.0 | 1.7 | 0.00 | 0.00 | 0.00 | 66 | 1010.7 |
| 20260509220530 | 77 | 149 | 0.0 | 1.7 | 0.00 | 0.00 | 0.00 | 65 | 1010.7 |
| 20260509220030 | 77 | 149 | 0.0 | 0.0 | 0.00 | 0.00 | 0.00 | 67 | 1010.6 |
| 20260509215531 | 78 | 149 | 0.0 | 0.0 | 0.00 | 0.00 | 0.00 | 66 | 1010.6 |
| 20260509215029 | 78 | 149 | 0.0 | 0.0 | 0.00 | 0.00 | 0.00 | 63 | 1010.6 |
| 20260509214528 | 79 | 149 | 0.0 | 1.7 | 0.00 | 0.00 | 0.00 | 63 | 1010.6 |
| 20260509214029 | 79 | 149 | 0.0 | 1.7 | 0.00 | 0.00 | 0.00 | 64 | 1010.6 |
| 20260509213528 | 79 | 149 | 0.0 | 0.0 | 0.00 | 0.00 | 0.00 | 63 | 1010.6 |
| 20260509213028 | 79 | 149 | 0.0 | 0.9 | 0.00 | 0.00 | 0.00 | 61 | 1010.6 |
| 20260509212527 | 79 | 149 | 0.0 | 0.9 | 0.00 | 0.00 | 0.00 | 60 | 1010.6 |
| 20260509212028 | 81 | 149 | 0.0 | 0.9 | 0.00 | 0.00 | 0.00 | 58 | 1010.5 |
| 20260509211549 | 82 | 149 | 0.0 | 1.7 | 0.00 | 0.00 | 0.00 | 56 | 1010.6 |
| 20260509211028 | 82 | 149 | 0.0 | 1.7 | 0.00 | 0.00 | 0.00 | 55 | 1010.6 |
| 20260509210527 | 82 | 148 | 0.0 | 0.0 | 0.00 | 0.00 | 0.00 | 51 | 1010.7 |
| 20260509210027 | 82 | 148 | 0.0 | 2.6 | 0.00 | 0.00 | 0.00 | 51 | 1010.7 |
| 20260509205526 | 83 | 149 | 0.0 | 4.3 | 0.00 | 0.00 | 0.00 | 50 | 1010.7 |
| 20260509205026 | 83 | 149 | 0.0 | 3.5 | 0.00 | 0.00 | 0.00 | 52 | 1010.8 |
| 20260509204525 | 82 | 147 | 0.0 | 2.6 | 0.00 | 0.00 | 0.00 | 52 | 1010.8 |
| 20260509204026 | 82 | 147 | 0.0 | 1.7 | 0.00 | 0.00 | 0.00 | 51 | 1010.8 |
| 20260509203523 | 82 | 147 | 0.0 | 1.7 | 0.00 | 0.00 | 0.00 | 51 | 1010.8 |
| 20260509203037 | 82 | 147 | 0.0 | 1.7 | 0.00 | 0.00 | 0.00 | 50 | 1010.9 |
| 20260509202523 | 82 | 147 | 0.0 | 3.5 | 0.00 | 0.00 | 0.00 | 51 | 1011.0 |
| 20260509202024 | 82 | 126 | 0.0 | 3.5 | 0.00 | 0.00 | 0.00 | 50 | 1011.0 |
| 20260509201524 | 82 | 118 | 0.0 | 3.5 | 0.00 | 0.00 | 0.00 | 49 | 1011.2 |
| 20260509201023 | 82 | 304 | 0.0 | 0.9 | 0.00 | 0.00 | 0.00 | 51 | 1011.3 |
| 20260509200523 | 82 | 304 | 0.0 | 0.9 | 0.00 | 0.00 | 0.00 | 52 | 1011.4 |
| 20260509200023 | 82 | 304 | 0.0 | 1.7 | 0.00 | 0.00 | 0.00 | 53 | 1011.5 |
| 20260509195521 | 81 | 292 | 0.0 | 1.7 | 0.00 | 0.00 | 0.00 | 51 | 1011.6 |
| 20260509195020 | 81 | 293 | 0.0 | 2.6 | 0.00 | 0.00 | 0.00 | 53 | 1011.5 |
| 20260509194520 | 81 | 275 | 0.0 | 2.6 | 0.00 | 0.00 | 0.00 | 49 | 1011.5 |
| 20260509194019 | 82 | 275 | 0.9 | 2.6 | 0.00 | 0.00 | 0.00 | 48 | 1011.7 |
| 20260509193519 | 82 | 207 | 0.0 | 0.9 | 0.00 | 0.00 | 0.00 | 55 | 1011.7 |
| 20260509193018 | 81 | 207 | 0.0 | 1.7 | 0.00 | 0.00 | 0.00 | 54 | 1011.7 |
| 20260509192519 | 81 | 207 | 0.0 | 1.7 | 0.00 | 0.00 | 0.00 | 52 | 1011.7 |
| 20260509192021 | 81 | 207 | 0.0 | 0.9 | 0.00 | 0.00 | 0.00 | 54 | 1011.7 |
| 20260509191519 | 81 | 207 | 0.0 | 0.9 | 0.00 | 0.00 | 0.00 | 49 | 1011.7 |
| 20260509191020 | 81 | 207 | 0.0 | 1.7 | 0.00 | 0.00 | 0.00 | 55 | 1011.7 |
| 20260509190517 | 81 | 204 | 0.0 | 0.9 | 0.00 | 0.00 | 0.00 | 55 | 1011.8 |
| 20260509190022 | 81 | 204 | 0.0 | 0.9 | 0.00 | 0.00 | 0.00 | 56 | 1011.8 |
| 20260509185516 | 80 | 204 | 0.0 | 0.9 | 0.00 | 0.00 | 0.00 | 55 | 1011.8 |
| 20260509185015 | 80 | 204 | 0.0 | 0.0 | 0.00 | 0.00 | 0.00 | 56 | 1011.9 |
| 20260509184514 | 80 | 204 | 0.0 | 0.0 | 0.00 | 0.00 | 0.00 | 55 | 1012.0 |
| 20260509184013 | 81 | 204 | 0.0 | 2.6 | 0.00 | 0.00 | 0.00 | 59 | 1011.9 |
| 20260509183513 | 80 | 204 | 0.9 | 3.5 | 0.00 | 0.00 | 0.00 | 61 | 1012.0 |
| 20260509183020 | 80 | 291 | 0.0 | 2.6 | 0.00 | 0.00 | 0.00 | 58 | 1012.1 |
| 20260509182512 | 80 | 178 | 0.0 | 2.6 | 0.00 | 0.00 | 0.00 | 60 | 1012.1 |
| 20260509182011 | 80 | 148 | 0.0 | 0.9 | 0.00 | 0.00 | 0.00 | 59 | 1012.2 |
| 20260509181511 | 80 | 148 | 0.0 | 4.3 | 0.00 | 0.00 | 0.00 | 62 | 1012.1 |
| 20260509181010 | 80 | 147 | 2.6 | 4.3 | 0.00 | 0.00 | 0.00 | 60 | 1012.1 |
| 20260509180507 | 79 | 283 | 0.0 | 1.7 | 0.00 | 0.00 | 0.00 | 61 | 1012.2 |
| 20260509180006 | 79 | 284 | 0.0 | 2.6 | 0.00 | 0.00 | 0.00 | 61 | 1012.2 |
| 20260509175505 | 79 | 284 | 0.0 | 4.3 | 0.00 | 0.00 | 0.00 | 63 | 1012.2 |
| 20260509175006 | 78 | 284 | 0.9 | 4.3 | 0.00 | 0.00 | 0.00 | 64 | 1012.3 |
| 20260509174508 | 78 | 282 | 0.0 | 0.0 | 0.00 | 0.00 | 0.00 | 65 | 1012.3 |
| 20260509174004 | 78 | 282 | 0.0 | 0.0 | 0.00 | 0.00 | 0.00 | 63 | 1012.3 |
| 20260509173503 | 78 | 282 | 0.0 | 5.2 | 0.00 | 0.00 | 0.00 | 63 | 1012.3 |
| 20260509173002 | 78 | 282 | 1.7 | 5.2 | 0.00 | 0.00 | 0.00 | 66 | 1012.4 |
| 20260509172501 | 77 | 276 | 0.0 | 2.6 | 0.00 | 0.00 | 0.00 | 66 | 1012.3 |
| 20260509172001 | 77 | 271 | 0.0 | 2.6 | 0.00 | 0.00 | 0.00 | 68 | 1012.2 |
| 20260509171500 | 77 | 271 | 0.0 | 2.6 | 0.00 | 0.00 | 0.00 | 68 | 1012.3 |
| 20260509171100 | 77 | 271 | 0.0 | 2.6 | 0.00 | 0.00 | 0.00 | 67 | 1012.3 |
| 20260509170559 | 76 | 274 | 0.0 | 3.5 | 0.00 | 0.00 | 0.00 | 68 | 1012.2 |
| 20260509170058 | 76 | 278 | 0.0 | 2.6 | 0.00 | 0.00 | 0.00 | 69 | 1012.3 |
| 20260509165557 | 76 | 278 | 0.0 | 2.6 | 0.00 | 0.00 | 0.00 | 70 | 1012.3 |
| 20260509165056 | 76 | 287 | 0.0 | 1.7 | 0.00 | 0.00 | 0.00 | 70 | 1012.3 |
| 20260509164555 | 75 | 288 | 0.0 | 4.3 | 0.00 | 0.00 | 0.00 | 70 | 1012.2 |
| 20260509164053 | 75 | 289 | 0.0 | 4.3 | 0.00 | 0.00 | 0.00 | 70 | 1012.2 |
| 20260509163553 | 75 | 300 | 0.0 | 2.6 | 0.00 | 0.00 | 0.00 | 72 | 1012.3 |
| 20260509163059 | 74 | 300 | 0.9 | 2.6 | 0.00 | 0.00 | 0.00 | 72 | 1012.3 |
| 20260509162553 | 74 | 276 | 0.0 | 2.6 | 0.00 | 0.00 | 0.00 | 71 | 1012.3 |
| 20260509162050 | 74 | 281 | 0.9 | 2.6 | 0.00 | 0.00 | 0.00 | 73 | 1012.4 |
| 20260509161550 | 74 | 248 | 0.0 | 1.7 | 0.00 | 0.00 | 0.00 | 73 | 1012.4 |
| 20260509161049 | 73 | 222 | 0.0 | 2.6 | 0.00 | 0.00 | 0.00 | 73 | 1012.4 |
| 20260509160548 | 73 | 273 | 0.9 | 5.2 | 0.00 | 0.00 | 0.00 | 74 | 1012.3 |
| 20260509160051 | 73 | 269 | 0.0 | 6.1 | 0.00 | 0.00 | 0.00 | 73 | 1012.3 |
| 20260509155545 | 72 | 323 | 0.9 | 3.5 | 0.00 | 0.00 | 0.00 | 76 | 1012.3 |
| 20260509155048 | 72 | 263 | 0.9 | 3.5 | 0.00 | 0.00 | 0.00 | 75 | 1012.2 |
| 20260509154543 | 71 | 259 | 0.0 | 4.3 | 0.00 | 0.00 | 0.00 | 76 | 1012.2 |
| 20260509154041 | 71 | 282 | 0.9 | 5.2 | 0.00 | 0.00 | 0.00 | 77 | 1012.3 |
| 20260509153541 | 71 | 309 | 0.0 | 1.7 | 0.00 | 0.00 | 0.00 | 76 | 1012.3 |
| 20260509153041 | 71 | 309 | 0.0 | 1.7 | 0.00 | 0.00 | 0.00 | 77 | 1012.3 |
| 20260509152540 | 71 | 309 | 0.0 | 3.5 | 0.00 | 0.00 | 0.00 | 78 | 1012.2 |
| 20260509152040 | 70 | 309 | 0.0 | 3.5 | 0.00 | 0.00 | 0.00 | 77 | 1012.1 |
| 20260509151541 | 70 | 299 | 0.0 | 2.6 | 0.00 | 0.00 | 0.00 | 77 | 1012.2 |
| 20260509151038 | 70 | 264 | 0.9 | 2.6 | 0.00 | 0.00 | 0.00 | 78 | 1012.2 |
| 20260509150538 | 70 | 264 | 0.0 | 2.6 | 0.00 | 0.00 | 0.00 | 79 | 1012.2 |
| 20260509150038 | 69 | 264 | 0.0 | 1.7 | 0.00 | 0.00 | 0.00 | 81 | 1012.1 |
| 20260509145537 | 69 | 264 | 0.0 | 1.7 | 0.00 | 0.00 | 0.00 | 80 | 1012.1 |
| 20260509145037 | 69 | 264 | 0.0 | 1.7 | 0.00 | 0.00 | 0.00 | 81 | 1012.2 |
| 20260509144535 | 69 | 264 | 0.0 | 0.0 | 0.00 | 0.00 | 0.00 | 81 | 1012.1 |
| 20260509144033 | 69 | 264 | 0.0 | 1.7 | 0.00 | 0.00 | 0.00 | 83 | 1012.2 |
| 20260509143532 | 68 | 264 | 0.0 | 1.7 | 0.00 | 0.00 | 0.00 | 80 | 1012.3 |
| 20260509143032 | 68 | 279 | 0.0 | 1.7 | 0.00 | 0.00 | 0.00 | 80 | 1012.3 |
| 20260509142531 | 68 | 279 | 0.0 | 0.0 | 0.00 | 0.00 | 0.00 | 79 | 1012.4 |
| 20260509142030 | 68 | 279 | 0.0 | 2.6 | 0.00 | 0.00 | 0.00 | 79 | 1012.4 |
| 20260509141531 | 67 | 279 | 0.0 | 2.6 | 0.00 | 0.00 | 0.00 | 80 | 1012.4 |
| 20260509141029 | 67 | 234 | 0.0 | 1.7 | 0.00 | 0.00 | 0.00 | 81 | 1012.4 |
| 20260509140527 | 66 | 230 | 0.0 | 2.6 | 0.00 | 0.00 | 0.00 | 82 | 1012.4 |
| 20260509140025 | 66 | 230 | 0.0 | 2.6 | 0.00 | 0.00 | 0.00 | 84 | 1012.4 |
| 20260509135527 | 65 | 250 | 0.0 | 1.7 | 0.00 | 0.00 | 0.00 | 85 | 1012.6 |
| 20260509135023 | 65 | 250 | 0.0 | 1.7 | 0.00 | 0.00 | 0.00 | 86 | 1012.6 |
| 20260509134523 | 65 | 250 | 0.0 | 1.7 | 0.00 | 0.00 | 0.00 | 87 | 1012.4 |
| 20260509134023 | 64 | 250 | 0.0 | 0.0 | 0.00 | 0.00 | 0.00 | 89 | 1012.4 |
| 20260509133522 | 64 | 250 | 0.0 | 0.9 | 0.00 | 0.00 | 0.00 | 91 | 1012.4 |
| 20260509133022 | 63 | 250 | 0.0 | 0.9 | 0.00 | 0.00 | 0.00 | 91 | 1012.4 |
| 20260509132524 | 63 | 250 | 0.0 | 0.9 | 0.00 | 0.00 | 0.00 | 92 | 1012.4 |
| 20260509132022 | 62 | 250 | 0.0 | 0.9 | 0.00 | 0.00 | 0.00 | 92 | 1012.3 |
| 20260509131529 | 62 | 250 | 0.0 | 0.9 | 0.00 | 0.00 | 0.00 | 92 | 1012.4 |
| 20260509131021 | 62 | 250 | 0.0 | 0.0 | 0.00 | 0.00 | 0.00 | 93 | 1012.3 |
| 20260509130520 | 62 | 250 | 0.0 | 0.0 | 0.00 | 0.00 | 0.00 | 93 | 1012.4 |
| 20260509130022 | 61 | 250 | 0.0 | 0.0 | 0.00 | 0.00 | 0.00 | 93 | 1012.2 |
| 20260509125519 | 61 | 250 | 0.0 | 0.0 | 0.00 | 0.00 | 0.00 | 93 | 1012.2 |
| 20260509125019 | 61 | 250 | 0.0 | 0.0 | 0.00 | 0.00 | 0.00 | 93 | 1012.3 |
| 20260509124519 | 61 | 250 | 0.0 | 0.0 | 0.00 | 0.00 | 0.00 | 93 | 1012.3 |
| 20260509124019 | 60 | 250 | 0.0 | 0.0 | 0.00 | 0.00 | 0.00 | 94 | 1012.3 |
| 20260509123519 | 60 | 250 | 0.0 | 0.0 | 0.00 | 0.00 | 0.00 | 94 | 1012.3 |
| 20260509123018 | 60 | 251 | 0.0 | 0.9 | 0.00 | 0.00 | 0.00 | 94 | 1012.3 |
| 20260509122518 | 60 | 254 | 0.0 | 0.9 | 0.00 | 0.00 | 0.00 | 94 | 1012.3 |
| 20260509122021 | 59 | 254 | 0.0 | 0.0 | 0.00 | 0.00 | 0.00 | 94 | 1012.2 |
| 20260509121517 | 59 | 254 | 0.0 | 0.0 | 0.00 | 0.00 | 0.00 | 94 | 1012.1 |
| 20260509121020 | 59 | 254 | 0.0 | 0.0 | 0.00 | 0.00 | 0.00 | 94 | 1012.0 |
| 20260509120516 | 59 | 254 | 0.0 | 0.0 | 0.00 | 0.00 | 0.00 | 94 | 1011.9 |
| 20260509120116 | 59 | 254 | 0.0 | 0.0 | 0.00 | 0.00 | 0.00 | 94 | 1011.8 |
| 20260509115515 | 59 | 254 | 0.0 | 0.0 | 0.00 | 0.00 | 0.00 | 94 | 1011.6 |
| 20260509115015 | 59 | 254 | 0.0 | 0.0 | 0.00 | 0.00 | 0.00 | 94 | 1011.5 |
| 20260509114514 | 59 | 254 | 0.0 | 0.0 | 0.00 | 0.00 | 0.00 | 93 | 1011.5 |
| 20260509114014 | 59 | 254 | 0.0 | 0.0 | 0.00 | 0.00 | 0.00 | 93 | 1011.4 |
| 20260509113514 | 59 | 254 | 0.0 | 0.0 | 0.00 | 0.00 | 0.00 | 93 | 1011.4 |
| 20260509113014 | 59 | 254 | 0.0 | 0.0 | 0.00 | 0.00 | 0.00 | 93 | 1011.3 |
| 20260509112513 | 59 | 254 | 0.0 | 0.0 | 0.00 | 0.00 | 0.00 | 92 | 1011.3 |
| 20260509112012 | 59 | 254 | 0.0 | 0.0 | 0.00 | 0.00 | 0.00 | 92 | 1011.2 |
| 20260509111512 | 59 | 254 | 0.0 | 0.0 | 0.00 | 0.00 | 0.00 | 92 | 1011.3 |
| 20260509111012 | 59 | 254 | 0.0 | 0.0 | 0.00 | 0.00 | 0.00 | 92 | 1011.1 |
| 20260509110511 | 59 | 254 | 0.0 | 0.0 | 0.00 | 0.00 | 0.00 | 92 | 1011.0 |
| 20260509110011 | 59 | 254 | 0.0 | 0.0 | 0.00 | 0.00 | 0.00 | 92 | 1010.9 |
| 20260509105510 | 59 | 254 | 0.0 | 0.0 | 0.00 | 0.00 | 0.00 | 91 | 1010.8 |
| 20260509105010 | 60 | 254 | 0.0 | 0.0 | 0.00 | 0.00 | 0.00 | 91 | 1010.8 |
| 20260509104509 | 60 | 254 | 0.0 | 0.0 | 0.00 | 0.00 | 0.00 | 91 | 1010.7 |
| 20260509104008 | 60 | 254 | 0.0 | 0.0 | 0.00 | 0.00 | 0.00 | 91 | 1010.7 |
| 20260509103508 | 60 | 254 | 0.0 | 0.0 | 0.00 | 0.00 | 0.00 | 91 | 1010.7 |
| 20260509103008 | 60 | 254 | 0.0 | 0.0 | 0.00 | 0.00 | 0.00 | 91 | 1010.7 |
| 20260509102509 | 60 | 254 | 0.0 | 0.0 | 0.00 | 0.00 | 0.00 | 91 | 1010.6 |
| 20260509102009 | 60 | 254 | 0.0 | 0.0 | 0.00 | 0.00 | 0.00 | 90 | 1010.7 |
| 20260509101508 | 60 | 254 | 0.0 | 0.0 | 0.00 | 0.00 | 0.00 | 90 | 1010.7 |
| 20260509101008 | 60 | 254 | 0.0 | 0.0 | 0.00 | 0.00 | 0.00 | 90 | 1010.7 |
| 20260509100507 | 60 | 254 | 0.0 | 0.0 | 0.00 | 0.00 | 0.00 | 89 | 1010.7 |
| 20260509100009 | 60 | 254 | 0.0 | 0.0 | 0.00 | 0.00 | 0.00 | 89 | 1010.7 |
| 20260509095507 | 61 | 254 | 0.0 | 0.0 | 0.00 | 0.00 | 0.00 | 89 | 1010.5 |
| 20260509095006 | 61 | 254 | 0.0 | 0.0 | 0.00 | 0.00 | 0.00 | 90 | 1010.4 |
| 20260509094507 | 60 | 254 | 0.0 | 0.0 | 0.00 | 0.00 | 0.00 | 90 | 1010.4 |
| 20260509094005 | 60 | 254 | 0.0 | 0.0 | 0.00 | 0.00 | 0.00 | 90 | 1010.5 |
| 20260509093508 | 60 | 254 | 0.0 | 0.0 | 0.00 | 0.00 | 0.00 | 89 | 1010.6 |
| 20260509093004 | 60 | 254 | 0.0 | 0.0 | 0.00 | 0.00 | 0.00 | 88 | 1010.8 |
| 20260509092503 | 61 | 254 | 0.0 | 0.0 | 0.00 | 0.00 | 0.00 | 87 | 1010.9 |
| 20260509092003 | 61 | 254 | 0.0 | 0.0 | 0.00 | 0.00 | 0.00 | 87 | 1011.0 |
| 20260509091501 | 61 | 254 | 0.0 | 0.0 | 0.00 | 0.00 | 0.00 | 86 | 1010.9 |
| 20260509091100 | 62 | 254 | 0.0 | 0.0 | 0.00 | 0.00 | 0.00 | 86 | 1011.0 |
| 20260509090659 | 62 | 254 | 0.0 | 0.0 | 0.00 | 0.00 | 0.00 | 85 | 1011.0 |
| 20260509090058 | 62 | 254 | 0.0 | 0.0 | 0.00 | 0.00 | 0.00 | 84 | 1010.9 |
| 20260509085559 | 62 | 254 | 0.0 | 0.9 | 0.00 | 0.00 | 0.00 | 84 | 1010.9 |
| 20260509085057 | 63 | 254 | 0.0 | 0.9 | 0.00 | 0.00 | 0.00 | 84 | 1010.8 |
| 20260509084601 | 63 | 254 | 0.0 | 1.7 | 0.00 | 0.00 | 0.00 | 84 | 1010.6 |
| 20260509084056 | 63 | 254 | 0.0 | 2.6 | 0.00 | 0.00 | 0.00 | 83 | 1010.5 |
| 20260509083557 | 63 | 286 | 0.0 | 3.5 | 0.00 | 0.00 | 0.00 | 83 | 1010.5 |
| 20260509083057 | 63 | 298 | 0.0 | 3.5 | 0.00 | 0.00 | 0.00 | 83 | 1010.4 |
| 20260509082554 | 63 | 261 | 1.7 | 3.5 | 0.00 | 0.00 | 0.00 | 83 | 1010.4 |
| 20260509082058 | 63 | 290 | 0.0 | 3.5 | 0.00 | 0.00 | 0.00 | 83 | 1010.4 |
| 20260509081557 | 63 | 280 | 0.0 | 3.5 | 0.00 | 0.00 | 0.00 | 83 | 1010.5 |
| 20260509081053 | 63 | 282 | 0.9 | 3.5 | 0.00 | 0.00 | 0.00 | 84 | 1010.5 |
| 20260509080554 | 63 | 293 | 0.0 | 1.7 | 0.00 | 0.00 | 0.00 | 83 | 1010.8 |
| 20260509080131 | 64 | 293 | 0.0 | 1.7 | 0.00 | 0.00 | 0.00 | 83 | 1010.8 |
| 20260509075551 | 64 | 293 | 0.0 | 1.7 | 0.00 | 0.00 | 0.00 | 82 | 1010.8 |
| 20260509075051 | 64 | 34 | 0.0 | 1.7 | 0.00 | 0.00 | 0.00 | 82 | 1010.9 |
| 20260509074551 | 64 | 33 | 0.0 | 3.5 | 0.00 | 0.00 | 0.00 | 82 | 1010.9 |
| 20260509074050 | 64 | 213 | 0.0 | 3.5 | 0.00 | 0.00 | 0.00 | 82 | 1010.8 |
| 20260509073549 | 64 | 185 | 0.9 | 3.5 | 0.00 | 0.00 | 0.00 | 82 | 1010.7 |
| 20260509073146 | 64 | 225 | 0.9 | 3.5 | 0.00 | 0.00 | 0.00 | 81 | 1010.6 |
| 20260509072549 | 64 | 188 | 1.7 | 4.3 | 0.00 | 0.00 | 0.00 | 82 | 1010.7 |
| 20260509072048 | 64 | 229 | 1.7 | 4.3 | 0.00 | 0.00 | 0.00 | 81 | 1010.6 |
| 20260509071550 | 64 | 215 | 1.7 | 3.5 | 0.00 | 0.00 | 0.00 | 81 | 1010.6 |
| 20260509071047 | 64 | 216 | 0.9 | 3.5 | 0.00 | 0.00 | 0.00 | 81 | 1010.5 |
| 20260509070547 | 64 | 227 | 1.7 | 5.2 | 0.00 | 0.00 | 0.00 | 81 | 1010.5 |
| 20260509070046 | 64 | 185 | 1.7 | 5.2 | 0.00 | 0.00 | 0.00 | 80 | 1010.5 |
| 20260509065545 | 64 | 190 | 1.7 | 5.2 | 0.00 | 0.00 | 0.00 | 80 | 1010.6 |
| 20260509065148 | 65 | 190 | 1.7 | 5.2 | 0.00 | 0.00 | 0.00 | 80 | 1010.6 |
| 20260509064547 | 65 | 192 | 2.6 | 5.2 | 0.00 | 0.00 | 0.00 | 79 | 1010.5 |
| 20260509064044 | 65 | 167 | 2.6 | 6.1 | 0.00 | 0.00 | 0.00 | 79 | 1010.6 |
| 20260509063543 | 65 | 181 | 1.7 | 6.1 | 0.00 | 0.00 | 0.00 | 78 | 1010.6 |
| 20260509063042 | 65 | 161 | 2.6 | 6.1 | 0.00 | 0.00 | 0.00 | 78 | 1010.4 |
| 20260509062543 | 65 | 189 | 1.7 | 7.8 | 0.00 | 0.00 | 0.00 | 78 | 1010.5 |
| 20260509062043 | 65 | 188 | 1.7 | 7.8 | 0.00 | 0.00 | 0.00 | 77 | 1010.4 |
| 20260509061551 | 65 | 186 | 1.7 | 4.3 | 0.00 | 0.00 | 0.00 | 77 | 1010.4 |